CES5405 ZUUU-ZSSS

Flight info

Callsign CES5405
Flight time 2h 4m
Altitude 41100
Route UBRAB9W UBRAB B213 WHA R343 PK DCT SASAN SAS62A
Aircraft A359/H-SDE2E3GHIJ3J4J5LM1ORWXY/LB1D1

Departure

Time 2026-05-05 10:23
Airport Chengdu Shuangliu International Airport (ZUUU)

Arrival

Time 2026-05-05 12:27
Airport Shanghai Hongqiao International Airport (ZSSS)
Time Latitude Longitude Altitude Speed Heading
2026-05-05 10:09 30.57118 103.95120 1653 ft 0 kts 128°
2026-05-05 10:14 30.57121 103.95116 1653 ft 3 kts 128°
2026-05-05 10:14 30.57136 103.95098 1653 ft 3 kts 194°
2026-05-05 10:15 30.57143 103.95101 1653 ft 0 kts 220°
2026-05-05 10:17 30.57131 103.95076 1653 ft 5 kts 255°
2026-05-05 10:18 30.57149 103.95045 1653 ft 13 kts 307°
2026-05-05 10:18 30.57173 103.94948 1653 ft 9 kts 288°
2026-05-05 10:18 30.57196 103.94868 1653 ft 12 kts 288°
2026-05-05 10:18 30.57228 103.94780 1653 ft 12 kts 287°
2026-05-05 10:19 30.57199 103.94710 1653 ft 10 kts 211°
2026-05-05 10:19 30.57129 103.94672 1653 ft 12 kts 203°
2026-05-05 10:19 30.57044 103.94630 1653 ft 14 kts 202°
2026-05-05 10:19 30.56952 103.94597 1653 ft 15 kts 196°
2026-05-05 10:20 30.56849 103.94559 1653 ft 16 kts 201°
2026-05-05 10:20 30.56743 103.94510 1653 ft 17 kts 201°
2026-05-05 10:20 30.56627 103.94454 1654 ft 19 kts 201°
2026-05-05 10:20 30.56546 103.94384 1654 ft 8 kts 265°
2026-05-05 10:21 30.56551 103.94315 1671 ft 9 kts 283°
2026-05-05 10:21 30.56572 103.94242 1658 ft 10 kts 289°
2026-05-05 10:21 30.56599 103.94163 1666 ft 11 kts 295°
2026-05-05 10:21 30.56625 103.94142 1672 ft 4 kts 354°
2026-05-05 10:22 30.56656 103.94150 1668 ft 6 kts 24°
2026-05-05 10:22 30.56808 103.94218 1665 ft 56 kts 22°
2026-05-05 10:22 30.57408 103.94492 1685 ft 129 kts 19°
2026-05-05 10:22 30.58402 103.94943 1982 ft 179 kts 22°
2026-05-05 10:23 30.59710 103.95532 2399 ft 229 kts 23°
2026-05-05 10:23 30.61343 103.96280 2793 ft 265 kts 22°
2026-05-05 10:23 30.63042 103.97064 3758 ft 256 kts 23°
2026-05-05 10:23 30.64716 103.97849 4522 ft 265 kts 23°
2026-05-05 10:24 30.66463 103.98679 5138 ft 276 kts 24°
2026-05-05 10:24 30.67994 103.99996 5879 ft 276 kts 53°
2026-05-05 10:24 30.69071 104.01852 6694 ft 279 kts 60°
2026-05-05 10:24 30.70088 104.03799 7446 ft 285 kts 60°
2026-05-05 10:25 30.71141 104.05783 8270 ft 290 kts 59°
2026-05-05 10:25 30.72227 104.07794 9133 ft 297 kts 58°
2026-05-05 10:25 30.73343 104.09843 9972 ft 301 kts 58°
2026-05-05 10:25 30.74467 104.11880 10817 ft 304 kts 57°
2026-05-05 10:26 30.75920 104.13703 11531 ft 313 kts 34°
2026-05-05 10:26 30.77866 104.14846 12315 ft 317 kts 21°
2026-05-05 10:26 30.79926 104.15815 13086 ft 322 kts 20°
2026-05-05 10:26 30.82022 104.16795 13841 ft 326 kts 21°
2026-05-05 10:27 30.84139 104.17799 14589 ft 328 kts 21°
2026-05-05 10:27 30.86254 104.18811 15388 ft 329 kts 20°
2026-05-05 10:27 30.88379 104.19833 16167 ft 331 kts 20°
2026-05-05 10:27 30.90522 104.20868 16927 ft 334 kts 20°
2026-05-05 10:28 30.92607 104.22107 17667 ft 338 kts 31°
2026-05-05 10:28 30.94389 104.23842 18369 ft 342 kts 45°
2026-05-05 10:28 30.95776 104.26112 18953 ft 348 kts 61°
2026-05-05 10:28 30.96616 104.28770 19524 ft 353 kts 77°
2026-05-05 10:29 30.96955 104.31619 20124 ft 357 kts 84°
2026-05-05 10:29 30.97177 104.34511 20718 ft 361 kts 84°
2026-05-05 10:29 30.97408 104.37444 21317 ft 365 kts 84°
2026-05-05 10:29 30.97647 104.40400 21933 ft 369 kts 83°
2026-05-05 10:30 30.97892 104.43398 22522 ft 374 kts 83°
2026-05-05 10:30 30.98142 104.46440 23130 ft 378 kts 83°
2026-05-05 10:30 30.98391 104.49462 23668 ft 382 kts 83°
2026-05-05 10:30 30.98646 104.52556 24198 ft 385 kts 83°
2026-05-05 10:31 30.98901 104.55667 24736 ft 387 kts 83°
2026-05-05 10:31 30.99158 104.58800 25267 ft 389 kts 83°
2026-05-05 10:31 30.99415 104.61952 25789 ft 392 kts 83°
2026-05-05 10:31 30.99675 104.65131 26306 ft 395 kts 83°
2026-05-05 10:32 30.99935 104.68319 26801 ft 398 kts 83°
2026-05-05 10:32 31.00197 104.71547 27291 ft 401 kts 83°
2026-05-05 10:32 31.00460 104.74809 27776 ft 404 kts 82°
2026-05-05 10:32 31.00635 104.76976 28100 ft 406 kts 82°
2026-05-05 10:33 31.00989 104.81382 28771 ft 410 kts 82°
2026-05-05 10:33 31.01165 104.83579 29104 ft 412 kts 82°
2026-05-05 10:33 31.01432 104.86915 29588 ft 414 kts 82°
2026-05-05 10:33 31.01785 104.91364 30135 ft 418 kts 82°
2026-05-05 10:34 31.01898 104.93663 30353 ft 422 kts 86°
2026-05-05 10:34 31.01663 104.97087 30727 ft 428 kts 98°
2026-05-05 10:34 31.00839 105.00448 31060 ft 433 kts 110°
2026-05-05 10:34 30.99615 105.03659 31399 ft 437 kts 114°
2026-05-05 10:35 30.98316 105.06893 31717 ft 440 kts 114°
2026-05-05 10:35 30.97036 105.10096 32029 ft 444 kts 113°
2026-05-05 10:35 30.95732 105.13372 32342 ft 447 kts 113°
2026-05-05 10:35 30.94417 105.16676 32644 ft 450 kts 113°
2026-05-05 10:36 30.93094 105.20003 32956 ft 454 kts 113°
2026-05-05 10:36 30.91764 105.23346 33277 ft 457 kts 113°
2026-05-05 10:36 30.90424 105.26711 33583 ft 460 kts 113°
2026-05-05 10:36 30.89072 105.30105 33862 ft 463 kts 113°
2026-05-05 10:37 30.87706 105.33533 34085 ft 467 kts 113°
2026-05-05 10:37 30.86414 105.37015 34292 ft 470 kts 107°
2026-05-05 10:37 30.85575 105.40686 34536 ft 469 kts 96°
2026-05-05 10:37 30.85330 105.44453 34775 ft 466 kts 84°
2026-05-05 10:38 30.85675 105.48192 35017 ft 463 kts 73°
2026-05-05 10:38 30.86362 105.51801 35261 ft 464 kts 71°
2026-05-05 10:38 30.87141 105.55448 35518 ft 465 kts 70°
2026-05-05 10:38 30.87950 105.59098 35782 ft 467 kts 70°
2026-05-05 10:39 30.88765 105.62772 36021 ft 469 kts 70°
2026-05-05 10:39 30.89576 105.66473 36287 ft 471 kts 69°
2026-05-05 10:39 30.90375 105.70176 36559 ft 473 kts 69°
2026-05-05 10:39 30.91168 105.73891 36799 ft 475 kts 69°
2026-05-05 10:40 30.91962 105.77637 37008 ft 477 kts 69°
2026-05-05 10:40 30.92756 105.81402 37248 ft 480 kts 69°
2026-05-05 10:40 30.93553 105.85188 37453 ft 482 kts 69°
2026-05-05 10:40 30.94352 105.88994 37669 ft 484 kts 69°
2026-05-05 10:41 30.95152 105.92810 37868 ft 486 kts 69°
2026-05-05 10:41 30.95850 105.96674 38077 ft 493 kts 75°
2026-05-05 10:41 30.96108 106.00703 38273 ft 502 kts 85°
2026-05-05 10:41 30.95806 106.04771 38475 ft 510 kts 95°
2026-05-05 10:42 30.94106 106.12877 38758 ft 518 kts 101°
2026-05-05 10:42 30.93133 106.16917 38896 ft 520 kts 102°
2026-05-05 10:42 30.92156 106.20931 39043 ft 522 kts 102°
2026-05-05 10:43 30.91161 106.25007 39177 ft 524 kts 102°
2026-05-05 10:43 30.90164 106.29107 39326 ft 526 kts 102°
2026-05-05 10:43 30.89172 106.33213 39446 ft 528 kts 102°
2026-05-05 10:43 30.87986 106.37280 39566 ft 533 kts 111°
2026-05-05 10:44 30.86250 106.41110 39708 ft 536 kts 122°
2026-05-05 10:44 30.83944 106.44520 39805 ft 537 kts 135°
2026-05-05 10:44 30.81302 106.47602 39961 ft 537 kts 137°
2026-05-05 10:44 30.78582 106.50599 40102 ft 539 kts 139°
2026-05-05 10:45 30.75826 106.53565 40225 ft 540 kts 139°
2026-05-05 10:45 30.73092 106.56487 40368 ft 541 kts 139°
2026-05-05 10:45 30.70314 106.59461 40460 ft 543 kts 139°
2026-05-05 10:45 30.67541 106.62444 40584 ft 544 kts 139°
2026-05-05 10:46 30.64758 106.65436 40704 ft 545 kts 139°
2026-05-05 10:46 30.59167 106.71452 40828 ft 551 kts 139°
2026-05-05 10:47 30.53509 106.77558 40828 ft 557 kts 139°
2026-05-05 10:47 30.47879 106.83631 40826 ft 556 kts 139°
2026-05-05 10:48 30.42192 106.89755 40827 ft 556 kts 139°
2026-05-05 10:48 30.36527 106.95842 40836 ft 556 kts 139°
2026-05-05 10:49 30.30830 107.01890 40833 ft 556 kts 140°
2026-05-05 10:49 30.25023 107.07810 40825 ft 556 kts 141°
2026-05-05 10:50 30.19212 107.13716 40827 ft 556 kts 140°
2026-05-05 10:50 30.13454 107.19601 40840 ft 556 kts 140°
2026-05-05 10:51 30.07817 107.25745 40839 ft 557 kts 136°
2026-05-05 10:51 30.02321 107.32080 40821 ft 558 kts 135°
2026-05-05 10:51 29.99846 107.35513 40830 ft 558 kts 124°
2026-05-05 10:52 29.97912 107.39379 40835 ft 556 kts 112°
2026-05-05 10:52 29.95349 107.47783 40851 ft 555 kts 104°
2026-05-05 10:53 29.93154 107.56319 40847 ft 556 kts 103°
2026-05-05 10:53 29.91148 107.64864 40866 ft 552 kts 95°
2026-05-05 10:53 29.90799 107.69227 40858 ft 544 kts 84°
2026-05-05 10:54 29.91127 107.73514 40860 ft 533 kts 72°
2026-05-05 10:54 29.92980 107.81733 40878 ft 528 kts 66°
2026-05-05 10:55 29.95090 107.89860 40886 ft 528 kts 65°
2026-05-05 10:55 29.97170 107.97922 40888 ft 528 kts 66°
2026-05-05 10:56 29.99235 108.06066 40912 ft 529 kts 66°
2026-05-05 10:56 30.01283 108.14225 40900 ft 529 kts 66°
2026-05-05 10:57 30.03331 108.22404 40921 ft 533 kts 66°
2026-05-05 10:57 30.05416 108.30719 40920 ft 542 kts 67°
2026-05-05 10:58 30.07514 108.39130 40917 ft 546 kts 66°
2026-05-05 10:58 30.09592 108.47501 40917 ft 545 kts 66°
2026-05-05 10:59 30.11672 108.55916 40933 ft 544 kts 66°
2026-05-05 10:59 30.13925 108.64231 40941 ft 539 kts 63°
2026-05-05 11:00 30.16398 108.72405 40945 ft 538 kts 63°
2026-05-05 11:00 30.18832 108.80531 40954 ft 538 kts 63°
2026-05-05 11:01 30.21242 108.88791 40950 ft 538 kts 63°
2026-05-05 11:01 30.23562 108.96952 40945 ft 540 kts 65°
2026-05-05 11:02 30.25604 109.05357 40956 ft 542 kts 67°
2026-05-05 11:02 30.27579 109.13762 40963 ft 541 kts 67°
2026-05-05 11:03 30.29600 109.22152 40950 ft 540 kts 66°
2026-05-05 11:03 30.31630 109.30447 40952 ft 539 kts 66°
2026-05-05 11:04 30.33673 109.38797 40945 ft 538 kts 66°
2026-05-05 11:04 30.35708 109.47132 40957 ft 537 kts 66°
2026-05-05 11:05 30.37718 109.55469 40949 ft 537 kts 67°
2026-05-05 11:05 30.39434 109.63922 40946 ft 543 kts 72°
2026-05-05 11:06 30.40739 109.72550 40948 ft 542 kts 73°
2026-05-05 11:06 30.41997 109.81186 40956 ft 544 kts 73°
2026-05-05 11:07 30.43242 109.89763 40943 ft 542 kts 73°
2026-05-05 11:07 30.44497 109.98393 40954 ft 543 kts 73°
2026-05-05 11:08 30.45753 110.07051 40960 ft 544 kts 73°
2026-05-05 11:08 30.46999 110.15690 40979 ft 543 kts 73°
2026-05-05 11:09 30.48235 110.24277 40929 ft 542 kts 74°
2026-05-05 11:09 30.49454 110.32878 40956 ft 542 kts 73°
2026-05-05 11:10 30.50684 110.41528 40955 ft 543 kts 73°
2026-05-05 11:10 30.51908 110.50171 40948 ft 543 kts 73°
2026-05-05 11:11 30.53122 110.58815 40938 ft 542 kts 73°
2026-05-05 11:11 30.54331 110.67378 40940 ft 543 kts 73°
2026-05-05 11:12 30.55534 110.76026 40928 ft 543 kts 73°
2026-05-05 11:12 30.56734 110.84674 40929 ft 542 kts 73°
2026-05-05 11:13 30.57924 110.93326 40904 ft 542 kts 73°
2026-05-05 11:13 30.59108 111.01976 40924 ft 543 kts 74°
2026-05-05 11:14 30.60285 111.10630 40898 ft 543 kts 74°
2026-05-05 11:14 30.61463 111.19280 40892 ft 541 kts 73°
2026-05-05 11:15 30.62628 111.27897 40888 ft 541 kts 73°
2026-05-05 11:15 30.63787 111.36484 40891 ft 541 kts 74°
2026-05-05 11:16 30.64939 111.45125 40889 ft 541 kts 74°
2026-05-05 11:16 30.65623 111.53892 40891 ft 546 kts 79°
2026-05-05 11:17 30.66086 111.62713 40892 ft 547 kts 80°
2026-05-05 11:17 30.66523 111.71524 40893 ft 547 kts 80°
2026-05-05 11:18 30.66966 111.80350 40913 ft 547 kts 80°
2026-05-05 11:18 30.67403 111.89116 40898 ft 547 kts 80°
2026-05-05 11:19 30.67841 111.97942 40900 ft 547 kts 80°
2026-05-05 11:19 30.68409 112.06741 40905 ft 545 kts 78°
2026-05-05 11:20 30.69052 112.15524 40910 ft 544 kts 78°
2026-05-05 11:20 30.69666 112.24250 40904 ft 544 kts 79°
2026-05-05 11:21 30.70257 112.33025 40909 ft 545 kts 79°
2026-05-05 11:21 30.70742 112.40368 40911 ft 545 kts 79°
2026-05-05 11:22 30.71410 112.50575 40900 ft 544 kts 79°
2026-05-05 11:22 30.71883 112.57881 40917 ft 544 kts 79°
2026-05-05 11:23 30.72446 112.66645 40919 ft 544 kts 79°
2026-05-05 11:23 30.73003 112.75413 40926 ft 544 kts 79°
2026-05-05 11:24 30.73555 112.84188 40913 ft 544 kts 79°
2026-05-05 11:24 30.74100 112.92948 40914 ft 543 kts 79°
2026-05-05 11:25 30.74639 113.01707 40918 ft 543 kts 79°
2026-05-05 11:25 30.75173 113.10485 40935 ft 543 kts 79°
2026-05-05 11:26 30.75653 113.19246 40929 ft 543 kts 82°
2026-05-05 11:26 30.75852 113.28023 40926 ft 544 kts 83°
2026-05-05 11:27 30.76006 113.36817 40927 ft 544 kts 83°
2026-05-05 11:27 30.76199 113.45612 40930 ft 543 kts 83°
2026-05-05 11:28 30.76409 113.54345 40928 ft 542 kts 83°
2026-05-05 11:28 30.76616 113.63069 40929 ft 542 kts 83°
2026-05-05 11:29 30.76818 113.71830 40927 ft 542 kts 83°
2026-05-05 11:29 30.77013 113.80597 40932 ft 542 kts 83°
2026-05-05 11:30 30.77200 113.89358 40929 ft 541 kts 83°
2026-05-05 11:30 30.77382 113.98108 40931 ft 541 kts 83°
2026-05-05 11:31 30.77602 114.06854 40932 ft 540 kts 82°
2026-05-05 11:32 30.79510 114.24058 40936 ft 524 kts 64°
2026-05-05 11:32 30.82046 114.31999 40928 ft 522 kts 63°
2026-05-05 11:33 30.84633 114.39897 40949 ft 523 kts 63°
2026-05-05 11:33 30.87123 114.47587 40941 ft 524 kts 64°
2026-05-05 11:34 30.89632 114.55316 40939 ft 524 kts 64°
2026-05-05 11:35 30.94192 114.69381 40955 ft 524 kts 64°
2026-05-05 11:35 30.96762 114.77343 40959 ft 523 kts 64°
2026-05-05 11:36 30.99322 114.85291 40956 ft 523 kts 64°
2026-05-05 11:36 31.01872 114.93230 40956 ft 523 kts 64°
2026-05-05 11:37 31.04416 115.01188 40969 ft 523 kts 64°
2026-05-05 11:37 31.06950 115.09106 40968 ft 524 kts 64°
2026-05-05 11:38 31.09495 115.17081 40971 ft 525 kts 64°
2026-05-05 11:38 31.12039 115.25083 40976 ft 524 kts 64°
2026-05-05 11:39 31.14557 115.33054 40988 ft 522 kts 64°
2026-05-05 11:39 31.17135 115.40995 40993 ft 523 kts 64°
2026-05-05 11:40 31.19719 115.48929 40996 ft 524 kts 64°
2026-05-05 11:40 31.22287 115.56870 41005 ft 524 kts 64°
2026-05-05 11:41 31.24856 115.64859 41012 ft 525 kts 64°
2026-05-05 11:41 31.27424 115.72868 41012 ft 526 kts 64°
2026-05-05 11:42 31.29973 115.80845 41027 ft 526 kts 64°
2026-05-05 11:42 31.32537 115.88882 41011 ft 527 kts 64°
2026-05-05 11:43 31.35128 115.96882 41010 ft 527 kts 64°
2026-05-05 11:43 31.37761 116.04913 41012 ft 529 kts 64°
2026-05-05 11:44 31.40373 116.12918 41007 ft 530 kts 64°
2026-05-05 11:44 31.42975 116.20941 41002 ft 529 kts 64°
2026-05-05 11:45 31.45575 116.28986 41003 ft 528 kts 64°
2026-05-05 11:45 31.48176 116.37053 40992 ft 529 kts 65°
2026-05-05 11:46 31.50773 116.45127 40996 ft 530 kts 65°
2026-05-05 11:46 31.53370 116.53223 40988 ft 530 kts 65°
2026-05-05 11:47 31.55962 116.61319 41001 ft 530 kts 65°
2026-05-05 11:47 31.58545 116.69410 40978 ft 530 kts 65°
2026-05-05 11:48 31.62397 116.81516 40994 ft 530 kts 65°
2026-05-05 11:48 31.64965 116.89610 40998 ft 530 kts 65°
2026-05-05 11:49 31.67542 116.97752 40995 ft 532 kts 65°
2026-05-05 11:49 31.70105 117.05898 41012 ft 532 kts 65°
2026-05-05 11:50 31.72630 117.14085 40997 ft 531 kts 66°
2026-05-05 11:50 31.75137 117.22246 41013 ft 532 kts 66°
2026-05-05 11:51 31.77017 117.30628 40997 ft 539 kts 81°
2026-05-05 11:51 31.76978 117.39485 41017 ft 544 kts 91°
2026-05-05 11:52 31.76388 117.48354 41016 ft 544 kts 92°
2026-05-05 11:52 31.75724 117.57225 41012 ft 545 kts 92°
2026-05-05 11:53 31.75076 117.66098 41016 ft 546 kts 92°
2026-05-05 11:53 31.74440 117.75002 41018 ft 546 kts 92°
2026-05-05 11:54 31.73809 117.83829 41010 ft 546 kts 92°
2026-05-05 11:54 31.73166 117.92729 41025 ft 546 kts 92°
2026-05-05 11:55 31.72519 118.01601 41018 ft 545 kts 92°
2026-05-05 11:55 31.71945 118.09381 41018 ft 544 kts 93°
2026-05-05 11:56 31.71309 118.18237 41020 ft 545 kts 92°
2026-05-05 11:56 31.70756 118.26274 41018 ft 545 kts 92°
2026-05-05 11:57 31.70141 118.35145 41016 ft 545 kts 92°
2026-05-05 11:57 31.69829 118.39562 40744 ft 538 kts 93°
2026-05-05 11:57 31.69517 118.43958 39926 ft 540 kts 93°
2026-05-05 11:58 31.69206 118.48311 39162 ft 541 kts 93°
2026-05-05 11:58 31.68891 118.52675 38795 ft 530 kts 93°
2026-05-05 11:58 31.68597 118.56707 38006 ft 519 kts 92°
2026-05-05 11:58 31.68289 118.60899 36908 ft 513 kts 92°
2026-05-05 11:59 31.67985 118.65050 36150 ft 509 kts 92°
2026-05-05 11:59 31.67684 118.69146 35392 ft 497 kts 92°
2026-05-05 11:59 31.67389 118.73150 34516 ft 488 kts 92°
2026-05-05 11:59 31.67099 118.77069 33706 ft 479 kts 92°
2026-05-05 12:00 31.66811 118.80952 32438 ft 475 kts 92°
2026-05-05 12:00 31.66524 118.84833 30977 ft 476 kts 91°
2026-05-05 12:00 31.66238 118.88686 29493 ft 476 kts 91°
2026-05-05 12:00 31.65950 118.92564 27878 ft 475 kts 91°
2026-05-05 12:01 31.65664 118.96369 26620 ft 469 kts 92°
2026-05-05 12:01 31.65380 119.00124 25916 ft 459 kts 92°
2026-05-05 12:01 31.65098 119.03898 25581 ft 458 kts 92°
2026-05-05 12:01 31.64846 119.07582 25522 ft 458 kts 91°
2026-05-05 12:02 31.64647 119.11313 25519 ft 457 kts 90°
2026-05-05 12:02 31.64485 119.15041 25523 ft 456 kts 90°
2026-05-05 12:02 31.64342 119.18767 25523 ft 456 kts 90°
2026-05-05 12:02 31.64196 119.22489 25524 ft 456 kts 90°
2026-05-05 12:03 31.64042 119.26187 25529 ft 456 kts 90°
2026-05-05 12:03 31.63886 119.29799 25051 ft 437 kts 90°
2026-05-05 12:03 31.63732 119.33313 23953 ft 432 kts 90°
2026-05-05 12:03 31.63577 119.36863 22374 ft 437 kts 91°
2026-05-05 12:04 31.63419 119.40414 21095 ft 435 kts 91°
2026-05-05 12:04 31.63258 119.43963 20224 ft 432 kts 91°
2026-05-05 12:04 31.63099 119.47467 19428 ft 428 kts 91°
2026-05-05 12:04 31.62940 119.50941 18724 ft 424 kts 91°
2026-05-05 12:05 31.62782 119.54377 18257 ft 421 kts 91°
2026-05-05 12:05 31.62624 119.57798 18041 ft 421 kts 91°
2026-05-05 12:05 31.62465 119.61243 18035 ft 421 kts 91°
2026-05-05 12:05 31.62306 119.64651 18041 ft 418 kts 91°
2026-05-05 12:06 31.62146 119.68054 18036 ft 416 kts 91°
2026-05-05 12:06 31.61987 119.71406 18036 ft 408 kts 91°
2026-05-05 12:06 31.61830 119.74735 18039 ft 408 kts 91°
2026-05-05 12:06 31.61672 119.78045 18040 ft 408 kts 91°
2026-05-05 12:07 31.61513 119.81371 18041 ft 408 kts 91°
2026-05-05 12:07 31.61352 119.84714 18044 ft 408 kts 92°
2026-05-05 12:07 31.61191 119.88037 18043 ft 408 kts 92°
2026-05-05 12:07 31.61031 119.91326 18045 ft 408 kts 92°
2026-05-05 12:08 31.60865 119.94692 18048 ft 408 kts 92°
2026-05-05 12:08 31.60703 119.97986 18050 ft 408 kts 92°
2026-05-05 12:08 31.60539 120.01303 17836 ft 408 kts 92°
2026-05-05 12:08 31.60374 120.04613 17573 ft 406 kts 92°
2026-05-05 12:09 31.60208 120.07910 17324 ft 405 kts 92°
2026-05-05 12:09 31.60042 120.11206 17066 ft 403 kts 92°
2026-05-05 12:09 31.59875 120.14505 16806 ft 401 kts 92°
2026-05-05 12:09 31.59712 120.17709 16565 ft 399 kts 92°
2026-05-05 12:10 31.59547 120.20951 16158 ft 397 kts 92°
2026-05-05 12:10 31.59381 120.24179 15606 ft 393 kts 92°
2026-05-05 12:10 31.59217 120.27347 15101 ft 388 kts 92°
2026-05-05 12:10 31.59026 120.30489 14553 ft 384 kts 95°
2026-05-05 12:11 31.58489 120.33552 14018 ft 381 kts 106°
2026-05-05 12:11 31.57660 120.36488 13459 ft 377 kts 108°
2026-05-05 12:11 31.57089 120.38392 13073 ft 375 kts 109°
2026-05-05 12:11 31.55932 120.42233 12238 ft 371 kts 109°
2026-05-05 12:12 31.54511 120.46973 11256 ft 365 kts 109°
2026-05-05 12:12 31.53675 120.49768 10739 ft 360 kts 109°
2026-05-05 12:12 31.52851 120.52524 10336 ft 357 kts 109°
2026-05-05 12:13 31.52030 120.55268 10193 ft 357 kts 109°
2026-05-05 12:13 31.51209 120.58008 10173 ft 355 kts 109°
2026-05-05 12:13 31.50389 120.60747 10175 ft 356 kts 109°
2026-05-05 12:13 31.49577 120.63456 9862 ft 349 kts 109°
2026-05-05 12:14 31.48787 120.66093 9226 ft 346 kts 110°
2026-05-05 12:14 31.47988 120.68755 8548 ft 345 kts 110°
2026-05-05 12:14 31.47192 120.71403 7954 ft 341 kts 111°
2026-05-05 12:14 31.46408 120.74007 7397 ft 336 kts 111°
2026-05-05 12:15 31.45642 120.76554 6818 ft 333 kts 111°
2026-05-05 12:15 31.44877 120.79092 6239 ft 329 kts 111°
2026-05-05 12:15 31.44118 120.81610 5640 ft 325 kts 111°
2026-05-05 12:15 31.43375 120.84074 5081 ft 320 kts 111°
2026-05-05 12:16 31.42633 120.86531 4484 ft 317 kts 111°
2026-05-05 12:16 31.41912 120.88919 4050 ft 312 kts 111°
2026-05-05 12:16 31.41291 120.91279 3890 ft 295 kts 106°
2026-05-05 12:16 31.40953 120.93570 3882 ft 276 kts 98°
2026-05-05 12:17 31.40900 120.95778 3879 ft 259 kts 90°
2026-05-05 12:17 31.41085 120.97780 3884 ft 243 kts 82°
2026-05-05 12:17 31.41465 120.99649 3880 ft 228 kts 76°
2026-05-05 12:17 31.41949 121.01354 3878 ft 212 kts 73°
2026-05-05 12:18 31.42421 121.02925 3883 ft 200 kts 73°
2026-05-05 12:18 31.42877 121.04457 3890 ft 199 kts 73°
2026-05-05 12:18 31.43333 121.05990 3897 ft 199 kts 73°
2026-05-05 12:18 31.43782 121.07497 3896 ft 198 kts 73°
2026-05-05 12:19 31.44242 121.09039 3891 ft 197 kts 73°
2026-05-05 12:19 31.44657 121.10569 3896 ft 197 kts 78°
2026-05-05 12:19 31.44929 121.12139 3897 ft 196 kts 84°
2026-05-05 12:19 31.45030 121.13696 3902 ft 195 kts 92°
2026-05-05 12:20 31.45039 121.15283 3897 ft 194 kts 93°
2026-05-05 12:20 31.45002 121.16876 3897 ft 191 kts 97°
2026-05-05 12:20 31.44846 121.18361 3886 ft 183 kts 103°
2026-05-05 12:20 31.44548 121.19789 3903 ft 179 kts 110°
2026-05-05 12:21 31.44115 121.21144 3924 ft 175 kts 117°
2026-05-05 12:21 31.43563 121.22399 3914 ft 174 kts 123°
2026-05-05 12:21 31.42890 121.23576 3906 ft 173 kts 129°
2026-05-05 12:21 31.42114 121.24647 3893 ft 172 kts 135°
2026-05-05 12:22 31.41260 121.25645 3894 ft 173 kts 138°
2026-05-05 12:22 31.40425 121.26587 3772 ft 166 kts 138°
2026-05-05 12:22 31.39588 121.27531 3441 ft 169 kts 139°
2026-05-05 12:22 31.38728 121.28504 3116 ft 172 kts 139°
2026-05-05 12:23 31.37859 121.29461 2810 ft 172 kts 140°
2026-05-05 12:23 31.36934 121.30336 2560 ft 169 kts 146°
2026-05-05 12:23 31.35972 121.31057 2500 ft 161 kts 152°
2026-05-05 12:23 31.34973 121.31640 2497 ft 162 kts 156°
2026-05-05 12:24 31.33928 121.32098 2500 ft 162 kts 163°
2026-05-05 12:24 31.32836 121.32417 2371 ft 162 kts 170°
2026-05-05 12:24 31.31716 121.32572 2069 ft 162 kts 176°
2026-05-05 12:24 31.30603 121.32652 1835 ft 158 kts 176°
2026-05-05 12:25 31.29520 121.32716 1631 ft 154 kts 176°
2026-05-05 12:25 31.28451 121.32773 1416 ft 154 kts 176°
2026-05-05 12:25 31.27377 121.32834 1228 ft 154 kts 176°
2026-05-05 12:25 31.26334 121.32891 1021 ft 147 kts 176°
2026-05-05 12:26 31.25323 121.32944 838 ft 148 kts 175°
2026-05-05 12:26 31.24262 121.33004 655 ft 155 kts 174°
2026-05-05 12:26 31.23179 121.33064 462 ft 156 kts 174°
2026-05-05 12:26 31.22085 121.33126 256 ft 158 kts 175°
2026-05-05 12:27 31.20965 121.33184 62 ft 162 kts 174°
2026-05-05 12:27 31.19849 121.33250 27 ft 160 kts 175°
2026-05-05 12:27 31.18882 121.33293 27 ft 105 kts 176°
2026-05-05 12:27 31.18560 121.33314 26 ft 9 kts 176°
2026-05-05 12:28 31.18500 121.33290 27 ft 10 kts 227°
2026-05-05 12:28 31.18477 121.33195 26 ft 15 kts 263°
2026-05-05 12:28 31.18487 121.33069 29 ft 15 kts 310°
2026-05-05 12:28 31.18594 121.33037 26 ft 17 kts 356°
2026-05-05 12:29 31.18723 121.33029 28 ft 20 kts 359°
2026-05-05 12:29 31.18871 121.33023 28 ft 22 kts 357°
2026-05-05 12:29 31.19032 121.33013 28 ft 25 kts 357°
2026-05-05 12:29 31.19211 121.33003 30 ft 27 kts 357°
2026-05-05 12:30 31.19412 121.32993 29 ft 30 kts 356°
2026-05-05 12:30 31.19604 121.32982 28 ft 15 kts 357°
2026-05-05 12:30 31.19649 121.32943 26 ft 8 kts 289°
2026-05-05 12:30 31.19651 121.32861 25 ft 12 kts 269°
2026-05-05 12:31 31.19647 121.32754 25 ft 15 kts 266°
2026-05-05 12:31 31.19610 121.32658 28 ft 13 kts 236°
2026-05-05 12:31 31.19596 121.32551 30 ft 11 kts 265°
2026-05-05 12:31 31.19595 121.32546 30 ft 0 kts 265°
2026-05-05 12:32 31.19595 121.32540 30 ft 0 kts 265°
2026-05-05 12:32 31.19595 121.32539 30 ft 0 kts 265°
2026-05-05 12:33 31.19595 121.32536 31 ft 0 kts 265°
2026-05-05 12:33 31.19595 121.32545 30 ft 1 kts 267°